owner,sensor,date,latitude,longitude,vertical_datum,wind_speed,wind_to_direction,wind_speed_of_gust,qcFlag 
DISL,ioos:station:DISL:MHPA:1,2017-09-01T00:00:00Z,30.6671,-87.9365,8.5,9.1,208.1,-999.0,'1111122,1111122,1111122' 
DISL,ioos:station:DISL:MHPA:1,2017-09-01T00:30:00Z,30.6671,-87.9365,8.5,8.69,209.1,-999.0,'1111122,1111122,1111122' 
DISL,ioos:station:DISL:MHPA:1,2017-09-01T01:00:00Z,30.6671,-87.9365,8.5,8.03,212.0,-999.0,'1111122,1111122,1111122' 
DISL,ioos:station:DISL:MHPA:1,2017-09-01T01:30:00Z,30.6671,-87.9365,8.5,7.22,206.6,-999.0,'1111122,1111122,1111122' 
DISL,ioos:station:DISL:MHPA:1,2017-09-01T02:00:00Z,30.6671,-87.9365,8.5,7.05,202.8,-999.0,'1111122,1111122,1111122' 
DISL,ioos:station:DISL:MHPA:1,2017-09-01T02:30:00Z,30.6671,-87.9365,8.5,6.79,209.9,-999.0,'1111122,1111122,1111122' 
DISL,ioos:station:DISL:MHPA:1,2017-09-01T03:00:00Z,30.6671,-87.9365,8.5,6.53,213.6,-999.0,'1111122,1111122,1111122' 
DISL,ioos:station:DISL:MHPA:1,2017-09-01T03:30:00Z,30.6671,-87.9365,8.5,8.07,222.0,-999.0,'1111122,1111122,1111122' 
DISL,ioos:station:DISL:MHPA:1,2017-09-01T04:00:00Z,30.6671,-87.9365,8.5,7.15,218.5,-999.0,'1111122,1111122,1111122' 
DISL,ioos:station:DISL:MHPA:1,2017-09-01T04:30:00Z,30.6671,-87.9365,8.5,6.8,214.1,-999.0,'1111122,1111122,1111122' 
DISL,ioos:station:DISL:MHPA:1,2017-09-01T05:00:00Z,30.6671,-87.9365,8.5,6.53,213.3,-999.0,'1111122,1111122,1111122' 
DISL,ioos:station:DISL:MHPA:1,2017-09-01T05:30:00Z,30.6671,-87.9365,8.5,6.45,210.7,-999.0,'1111122,1111122,1111122' 
DISL,ioos:station:DISL:MHPA:1,2017-09-01T06:00:00Z,30.6671,-87.9365,8.5,6.41,213.1,-999.0,'1111122,1111122,1111122' 
DISL,ioos:station:DISL:MHPA:1,2017-09-01T06:30:00Z,30.6671,-87.9365,8.5,5.73,211.0,-999.0,'1111122,1111122,1111122' 
DISL,ioos:station:DISL:MHPA:1,2017-09-01T07:00:00Z,30.6671,-87.9365,8.5,5.59,223.0,-999.0,'1111122,1111122,1111122' 
DISL,ioos:station:DISL:MHPA:1,2017-09-01T07:30:00Z,30.6671,-87.9365,8.5,5.15,227.8,-999.0,'1111122,1111122,1111122' 
DISL,ioos:station:DISL:MHPA:1,2017-09-01T08:00:00Z,30.6671,-87.9365,8.5,3.38,219.2,-999.0,'1111122,1111122,1111122' 
DISL,ioos:station:DISL:MHPA:1,2017-09-01T08:30:00Z,30.6671,-87.9365,8.5,4.09,228.4,-999.0,'1111122,1111122,1111122' 
DISL,ioos:station:DISL:MHPA:1,2017-09-01T09:00:00Z,30.6671,-87.9365,8.5,4.85,238.1,-999.0,'1111122,1111122,1111122' 
DISL,ioos:station:DISL:MHPA:1,2017-09-01T09:30:00Z,30.6671,-87.9365,8.5,5.24,253.1,-999.0,'1111122,1111122,1111122' 
DISL,ioos:station:DISL:MHPA:1,2017-09-01T10:00:00Z,30.6671,-87.9365,8.5,3.87,254.3,-999.0,'1111122,1111122,1111122' 
DISL,ioos:station:DISL:MHPA:1,2017-09-01T10:30:00Z,30.6671,-87.9365,8.5,4.77,261.9,-999.0,'1111122,1111122,1111122' 
DISL,ioos:station:DISL:MHPA:1,2017-09-01T11:00:00Z,30.6671,-87.9365,8.5,4.69,264.3,-999.0,'1111122,1111122,1111122' 
DISL,ioos:station:DISL:MHPA:1,2017-09-01T11:30:00Z,30.6671,-87.9365,8.5,4.2,257.3,-999.0,'1111122,1111122,1111122' 
DISL,ioos:station:DISL:MHPA:1,2017-09-01T12:00:00Z,30.6671,-87.9365,8.5,3.7,259.7,-999.0,'1111122,1111122,1111122' 
DISL,ioos:station:DISL:MHPA:1,2017-09-01T12:30:00Z,30.6671,-87.9365,8.5,3.21,286.4,-999.0,'1111122,1111122,1111122' 
DISL,ioos:station:DISL:MHPA:1,2017-09-01T13:00:00Z,30.6671,-87.9365,8.5,2.94,276.9,-999.0,'1111122,1111122,1111122' 
DISL,ioos:station:DISL:MHPA:1,2017-09-01T13:30:00Z,30.6671,-87.9365,8.5,2.01,279.5,-999.0,'1111122,1111122,1111122' 
DISL,ioos:station:DISL:MHPA:1,2017-09-01T14:00:00Z,30.6671,-87.9365,8.5,2.2,270.9,-999.0,'1111122,1111122,1111122' 
DISL,ioos:station:DISL:MHPA:1,2017-09-01T14:30:00Z,30.6671,-87.9365,8.5,2.18,256.0,-999.0,'1111122,1111122,1111122' 
DISL,ioos:station:DISL:MHPA:1,2017-09-01T15:00:00Z,30.6671,-87.9365,8.5,1.85,291.0,-999.0,'1111122,1111122,1111122' 
DISL,ioos:station:DISL:MHPA:1,2017-09-01T15:30:00Z,30.6671,-87.9365,8.5,2.32,195.8,-999.0,'1111122,1111122,1111122' 
DISL,ioos:station:DISL:MHPA:1,2017-09-01T16:00:00Z,30.6671,-87.9365,8.5,1.72,179.2,-999.0,'1111122,1111122,1111122' 
DISL,ioos:station:DISL:MHPA:1,2017-09-01T16:30:00Z,30.6671,-87.9365,8.5,2.58,170.1,-999.0,'1111122,1111122,1111122' 
DISL,ioos:station:DISL:MHPA:1,2017-09-01T17:00:00Z,30.6671,-87.9365,8.5,1.8,180.9,-999.0,'1111122,1111122,1111122' 
DISL,ioos:station:DISL:MHPA:1,2017-09-01T17:30:00Z,30.6671,-87.9365,8.5,1.81,180.4,-999.0,'1111122,1111122,1111122' 
DISL,ioos:station:DISL:MHPA:1,2017-09-01T18:00:00Z,30.6671,-87.9365,8.5,1.88,183.2,-999.0,'1111122,1111122,1111122' 
DISL,ioos:station:DISL:MHPA:1,2017-09-01T18:30:00Z,30.6671,-87.9365,8.5,1.96,199.1,-999.0,'1111122,1111122,1111122' 
DISL,ioos:station:DISL:MHPA:1,2017-09-01T19:00:00Z,30.6671,-87.9365,8.5,1.64,199.5,-999.0,'1111122,1111122,1111122' 
DISL,ioos:station:DISL:MHPA:1,2017-09-01T19:30:00Z,30.6671,-87.9365,8.5,3.75,173.1,-999.0,'1111122,1111122,1111122' 
DISL,ioos:station:DISL:MHPA:1,2017-09-01T20:00:00Z,30.6671,-87.9365,8.5,3.68,174.3,-999.0,'1111122,1111122,1111122' 
DISL,ioos:station:DISL:MHPA:1,2017-09-01T20:30:00Z,30.6671,-87.9365,8.5,4.01,165.7,-999.0,'1111122,1111122,1111122' 
DISL,ioos:station:DISL:MHPA:1,2017-09-01T21:00:00Z,30.6671,-87.9365,8.5,4.69,170.6,-999.0,'1111122,1111122,1111122' 
DISL,ioos:station:DISL:MHPA:1,2017-09-01T21:30:00Z,30.6671,-87.9365,8.5,4.33,174.6,-999.0,'1111122,1111122,1111122' 
DISL,ioos:station:DISL:MHPA:1,2017-09-01T22:00:00Z,30.6671,-87.9365,8.5,4.61,167.6,-999.0,'1111122,1111122,1111122' 
DISL,ioos:station:DISL:MHPA:1,2017-09-01T22:30:00Z,30.6671,-87.9365,8.5,6.36,169.7,-999.0,'1111122,1111122,1111122' 
DISL,ioos:station:DISL:MHPA:1,2017-09-01T23:00:00Z,30.6671,-87.9365,8.5,5.3,176.1,-999.0,'1111122,1111122,1111122' 
DISL,ioos:station:DISL:MHPA:1,2017-09-01T23:30:00Z,30.6671,-87.9365,8.5,5.55,188.4,-999.0,'1111122,1111122,1111122' 
DISL,ioos:station:DISL:MHPA:1,2017-09-02T00:00:00Z,30.6671,-87.9365,8.5,6.19,190.9,-999.0,'1111122,1111122,1111122' 
DISL,ioos:station:DISL:MHPA:1,2017-09-02T00:30:00Z,30.6671,-87.9365,8.5,6.09,186.5,-999.0,'1111122,1111122,1111122' 
DISL,ioos:station:DISL:MHPA:1,2017-09-02T01:00:00Z,30.6671,-87.9365,8.5,6.04,241.6,-999.0,'1111122,1111122,1111122' 
DISL,ioos:station:DISL:MHPA:1,2017-09-02T01:30:00Z,30.6671,-87.9365,8.5,3.85,216.7,-999.0,'1111122,1111122,1111122' 
DISL,ioos:station:DISL:MHPA:1,2017-09-02T02:00:00Z,30.6671,-87.9365,8.5,2.31,205.2,-999.0,'1111122,1111122,1111122' 
DISL,ioos:station:DISL:MHPA:1,2017-09-02T02:30:00Z,30.6671,-87.9365,8.5,2.86,218.6,-999.0,'1111122,1111122,1111122' 
DISL,ioos:station:DISL:MHPA:1,2017-09-02T03:00:00Z,30.6671,-87.9365,8.5,2.39,213.8,-999.0,'1111122,1111122,1111122' 
DISL,ioos:station:DISL:MHPA:1,2017-09-02T03:30:00Z,30.6671,-87.9365,8.5,2.71,189.1,-999.0,'1111122,1111122,1111122' 
DISL,ioos:station:DISL:MHPA:1,2017-09-02T04:00:00Z,30.6671,-87.9365,8.5,1.85,176.8,-999.0,'1111122,1111122,1111122' 
DISL,ioos:station:DISL:MHPA:1,2017-09-02T04:30:00Z,30.6671,-87.9365,8.5,1.21,128.0,-999.0,'1111122,1111122,1111122' 
DISL,ioos:station:DISL:MHPA:1,2017-09-02T05:00:00Z,30.6671,-87.9365,8.5,0.11,103.6,-999.0,'1111122,1111122,1111122' 
DISL,ioos:station:DISL:MHPA:1,2017-09-02T05:30:00Z,30.6671,-87.9365,8.5,1.69,232.5,-999.0,'1111122,1111122,1111122' 
DISL,ioos:station:DISL:MHPA:1,2017-09-02T06:00:00Z,30.6671,-87.9365,8.5,2.15,255.0,-999.0,'1111122,1111122,1111122' 
DISL,ioos:station:DISL:MHPA:1,2017-09-02T06:30:00Z,30.6671,-87.9365,8.5,2.51,231.2,-999.0,'1111122,1111122,1111122' 
DISL,ioos:station:DISL:MHPA:1,2017-09-02T07:00:00Z,30.6671,-87.9365,8.5,1.11,334.1,-999.0,'1111122,1111122,1111122' 
DISL,ioos:station:DISL:MHPA:1,2017-09-02T07:30:00Z,30.6671,-87.9365,8.5,0.52,71.06,-999.0,'1111122,1111122,1111122' 
DISL,ioos:station:DISL:MHPA:1,2017-09-02T08:00:00Z,30.6671,-87.9365,8.5,0.86,347.8,-999.0,'1111122,1111122,1111122' 
DISL,ioos:station:DISL:MHPA:1,2017-09-02T08:30:00Z,30.6671,-87.9365,8.5,0.39,23.22,-999.0,'1111122,1111122,1111122' 
DISL,ioos:station:DISL:MHPA:1,2017-09-02T09:00:00Z,30.6671,-87.9365,8.5,0.68,342.0,-999.0,'1111122,1111122,1111122' 
DISL,ioos:station:DISL:MHPA:1,2017-09-02T09:30:00Z,30.6671,-87.9365,8.5,1.34,9.69,-999.0,'1111122,1111122,1111122' 
DISL,ioos:station:DISL:MHPA:1,2017-09-02T10:00:00Z,30.6671,-87.9365,8.5,0.82,12.76,-999.0,'1111122,1111122,1111122' 
DISL,ioos:station:DISL:MHPA:1,2017-09-02T10:30:00Z,30.6671,-87.9365,8.5,1.16,3.655,-999.0,'1111122,1111122,1111122' 
DISL,ioos:station:DISL:MHPA:1,2017-09-02T11:00:00Z,30.6671,-87.9365,8.5,0.82,51.45,-999.0,'1111122,1111122,1111122' 
DISL,ioos:station:DISL:MHPA:1,2017-09-02T11:30:00Z,30.6671,-87.9365,8.5,1.0,342.0,-999.0,'1111122,1111122,1111122' 
DISL,ioos:station:DISL:MHPA:1,2017-09-02T12:00:00Z,30.6671,-87.9365,8.5,1.18,351.6,-999.0,'1111122,1111122,1111122' 
DISL,ioos:station:DISL:MHPA:1,2017-09-02T12:30:00Z,30.6671,-87.9365,8.5,0.99,5.022,-999.0,'1111122,1111122,1111122' 
DISL,ioos:station:DISL:MHPA:1,2017-09-02T13:00:00Z,30.6671,-87.9365,8.5,1.04,20.35,-999.0,'1111122,1111122,1111122' 
DISL,ioos:station:DISL:MHPA:1,2017-09-02T13:30:00Z,30.6671,-87.9365,8.5,1.41,10.84,-999.0,'1111122,1111122,1111122' 
DISL,ioos:station:DISL:MHPA:1,2017-09-02T14:00:00Z,30.6671,-87.9365,8.5,1.93,342.7,-999.0,'1111122,1111122,1111122' 
DISL,ioos:station:DISL:MHPA:1,2017-09-02T14:30:00Z,30.6671,-87.9365,8.5,1.88,18.44,-999.0,'1111122,1111122,1111122' 
DISL,ioos:station:DISL:MHPA:1,2017-09-02T15:00:00Z,30.6671,-87.9365,8.5,1.1,34.31,-999.0,'1111122,1111122,1111122' 
DISL,ioos:station:DISL:MHPA:1,2017-09-02T15:30:00Z,30.6671,-87.9365,8.5,1.14,42.53,-999.0,'1111122,1111122,1111122' 
DISL,ioos:station:DISL:MHPA:1,2017-09-02T16:00:00Z,30.6671,-87.9365,8.5,1.16,40.47,-999.0,'1111122,1111122,1111122' 
DISL,ioos:station:DISL:MHPA:1,2017-09-02T16:30:00Z,30.6671,-87.9365,8.5,1.14,43.64,-999.0,'1111122,1111122,1111122' 
DISL,ioos:station:DISL:MHPA:1,2017-09-02T17:00:00Z,30.6671,-87.9365,8.5,0.47,12.7,-999.0,'1111122,1111122,1111122' 
DISL,ioos:station:DISL:MHPA:1,2017-09-02T17:30:00Z,30.6671,-87.9365,8.5,1.52,225.8,-999.0,'1111122,1111122,1111122' 
DISL,ioos:station:DISL:MHPA:1,2017-09-02T18:00:00Z,30.6671,-87.9365,8.5,1.72,109.3,-999.0,'1111122,1111122,1111122' 
DISL,ioos:station:DISL:MHPA:1,2017-09-02T18:30:00Z,30.6671,-87.9365,8.5,1.26,201.5,-999.0,'1111122,1111122,1111122' 
DISL,ioos:station:DISL:MHPA:1,2017-09-02T19:00:00Z,30.6671,-87.9365,8.5,2.13,255.7,-999.0,'1111122,1111122,1111122' 
DISL,ioos:station:DISL:MHPA:1,2017-09-02T19:30:00Z,30.6671,-87.9365,8.5,7.7,219.1,-999.0,'1111122,1111122,1111122' 
DISL,ioos:station:DISL:MHPA:1,2017-09-02T20:00:00Z,30.6671,-87.9365,8.5,5.54,243.8,-999.0,'1111122,1111122,1111122' 
DISL,ioos:station:DISL:MHPA:1,2017-09-02T20:30:00Z,30.6671,-87.9365,8.5,3.9,204.6,-999.0,'1111122,1111122,1111122' 
DISL,ioos:station:DISL:MHPA:1,2017-09-02T21:00:00Z,30.6671,-87.9365,8.5,5.74,135.9,-999.0,'1111122,1111122,1111122' 
DISL,ioos:station:DISL:MHPA:1,2017-09-02T21:30:00Z,30.6671,-87.9365,8.5,3.56,121.6,-999.0,'1111122,1111122,1111122' 
DISL,ioos:station:DISL:MHPA:1,2017-09-02T22:00:00Z,30.6671,-87.9365,8.5,3.56,152.7,-999.0,'1111122,1111122,1111122' 
DISL,ioos:station:DISL:MHPA:1,2017-09-02T22:30:00Z,30.6671,-87.9365,8.5,2.62,120.5,-999.0,'1111122,1111122,1111122' 
DISL,ioos:station:DISL:MHPA:1,2017-09-02T23:00:00Z,30.6671,-87.9365,8.5,1.73,112.0,-999.0,'1111122,1111122,1111122' 
DISL,ioos:station:DISL:MHPA:1,2017-09-02T23:30:00Z,30.6671,-87.9365,8.5,1.14,158.5,-999.0,'1111122,1111122,1111122' 
DISL,ioos:station:DISL:MHPA:1,2017-09-03T00:00:00Z,30.6671,-87.9365,8.5,0.66,77.07,-999.0,'1111122,1111122,1111122' 
DISL,ioos:station:DISL:MHPA:1,2017-09-03T00:30:00Z,30.6671,-87.9365,8.5,0.12,35.71,-999.0,'1111122,1111122,1111122' 
DISL,ioos:station:DISL:MHPA:1,2017-09-03T01:00:00Z,30.6671,-87.9365,8.5,0.17,73.63,-999.0,'1111122,1111122,1111122' 
DISL,ioos:station:DISL:MHPA:1,2017-09-03T01:30:00Z,30.6671,-87.9365,8.5,0.51,9.02,-999.0,'1111122,1111122,1111122' 
DISL,ioos:station:DISL:MHPA:1,2017-09-03T02:00:00Z,30.6671,-87.9365,8.5,1.04,300.4,-999.0,'1111122,1111122,1111122' 
DISL,ioos:station:DISL:MHPA:1,2017-09-03T02:30:00Z,30.6671,-87.9365,8.5,1.41,10.19,-999.0,'1111122,1111122,1111122' 
DISL,ioos:station:DISL:MHPA:1,2017-09-03T03:00:00Z,30.6671,-87.9365,8.5,1.26,106.0,-999.0,'1111122,1111122,1111122' 
DISL,ioos:station:DISL:MHPA:1,2017-09-03T03:30:00Z,30.6671,-87.9365,8.5,1.19,85.7,-999.0,'1111122,1111122,1111122' 
DISL,ioos:station:DISL:MHPA:1,2017-09-03T04:00:00Z,30.6671,-87.9365,8.5,0.33,60.04,-999.0,'1111122,1111122,1111122' 
DISL,ioos:station:DISL:MHPA:1,2017-09-03T04:30:00Z,30.6671,-87.9365,8.5,1.22,103.2,-999.0,'1111122,1111122,1111122' 
DISL,ioos:station:DISL:MHPA:1,2017-09-03T05:00:00Z,30.6671,-87.9365,8.5,1.43,118.3,-999.0,'1111122,1111122,1111122' 
DISL,ioos:station:DISL:MHPA:1,2017-09-03T05:30:00Z,30.6671,-87.9365,8.5,1.04,106.4,-999.0,'1111122,1111122,1111122' 
DISL,ioos:station:DISL:MHPA:1,2017-09-03T06:00:00Z,30.6671,-87.9365,8.5,0.79,351.5,-999.0,'1111122,1111122,1111122' 
DISL,ioos:station:DISL:MHPA:1,2017-09-03T06:30:00Z,30.6671,-87.9365,8.5,1.26,354.0,-999.0,'1111122,1111122,1111122' 
DISL,ioos:station:DISL:MHPA:1,2017-09-03T07:00:00Z,30.6671,-87.9365,8.5,1.01,11.64,-999.0,'1111122,1111122,1111122' 
DISL,ioos:station:DISL:MHPA:1,2017-09-03T07:30:00Z,30.6671,-87.9365,8.5,1.75,353.2,-999.0,'1111122,1111122,1111122' 
DISL,ioos:station:DISL:MHPA:1,2017-09-03T08:00:00Z,30.6671,-87.9365,8.5,1.83,347.6,-999.0,'1111122,1111122,1111122' 
DISL,ioos:station:DISL:MHPA:1,2017-09-03T08:30:00Z,30.6671,-87.9365,8.5,1.31,2.471,-999.0,'1111122,1111122,1111122' 
DISL,ioos:station:DISL:MHPA:1,2017-09-03T09:00:00Z,30.6671,-87.9365,8.5,1.79,2.268,-999.0,'1111122,1111122,1111122' 
DISL,ioos:station:DISL:MHPA:1,2017-09-03T09:30:00Z,30.6671,-87.9365,8.5,1.25,8.77,-999.0,'1111122,1111122,1111122' 
DISL,ioos:station:DISL:MHPA:1,2017-09-03T10:00:00Z,30.6671,-87.9365,8.5,1.45,38.06,-999.0,'1111122,1111122,1111122' 
DISL,ioos:station:DISL:MHPA:1,2017-09-03T10:30:00Z,30.6671,-87.9365,8.5,1.15,30.6,-999.0,'1111122,1111122,1111122' 
DISL,ioos:station:DISL:MHPA:1,2017-09-03T11:00:00Z,30.6671,-87.9365,8.5,1.72,12.48,-999.0,'1111122,1111122,1111122' 
DISL,ioos:station:DISL:MHPA:1,2017-09-03T11:30:00Z,30.6671,-87.9365,8.5,1.11,48.02,-999.0,'1111122,1111122,1111122' 
DISL,ioos:station:DISL:MHPA:1,2017-09-03T12:00:00Z,30.6671,-87.9365,8.5,1.49,346.0,-999.0,'1111122,1111122,1111122' 
DISL,ioos:station:DISL:MHPA:1,2017-09-03T12:30:00Z,30.6671,-87.9365,8.5,1.28,339.1,-999.0,'1111122,1111122,1111122' 
DISL,ioos:station:DISL:MHPA:1,2017-09-03T13:00:00Z,30.6671,-87.9365,8.5,1.83,356.3,-999.0,'1111122,1111122,1111122' 
DISL,ioos:station:DISL:MHPA:1,2017-09-03T13:30:00Z,30.6671,-87.9365,8.5,1.67,3.341,-999.0,'1111122,1111122,1111122' 
DISL,ioos:station:DISL:MHPA:1,2017-09-03T14:00:00Z,30.6671,-87.9365,8.5,1.76,10.17,-999.0,'1111122,1111122,1111122' 
DISL,ioos:station:DISL:MHPA:1,2017-09-03T14:30:00Z,30.6671,-87.9365,8.5,1.62,19.08,-999.0,'1111122,1111122,1111122' 
DISL,ioos:station:DISL:MHPA:1,2017-09-03T15:00:00Z,30.6671,-87.9365,8.5,1.14,346.3,-999.0,'1111122,1111122,1111122' 
DISL,ioos:station:DISL:MHPA:1,2017-09-03T15:30:00Z,30.6671,-87.9365,8.5,1.89,327.9,-999.0,'1111122,1111122,1111122' 
DISL,ioos:station:DISL:MHPA:1,2017-09-03T16:00:00Z,30.6671,-87.9365,8.5,1.81,9.99,-999.0,'1111122,1111122,1111122' 
DISL,ioos:station:DISL:MHPA:1,2017-09-03T16:30:00Z,30.6671,-87.9365,8.5,1.73,339.6,-999.0,'1111122,1111122,1111122' 
DISL,ioos:station:DISL:MHPA:1,2017-09-03T17:00:00Z,30.6671,-87.9365,8.5,2.43,322.8,-999.0,'1111122,1111122,1111122' 
DISL,ioos:station:DISL:MHPA:1,2017-09-03T17:30:00Z,30.6671,-87.9365,8.5,2.63,318.6,-999.0,'1111122,1111122,1111122' 
DISL,ioos:station:DISL:MHPA:1,2017-09-03T18:00:00Z,30.6671,-87.9365,8.5,2.41,296.8,-999.0,'1111122,1111122,1111122' 
DISL,ioos:station:DISL:MHPA:1,2017-09-03T18:30:00Z,30.6671,-87.9365,8.5,1.79,317.6,-999.0,'1111122,1111122,1111122' 
DISL,ioos:station:DISL:MHPA:1,2017-09-03T19:00:00Z,30.6671,-87.9365,8.5,2.06,339.0,-999.0,'1111122,1111122,1111122' 
DISL,ioos:station:DISL:MHPA:1,2017-09-03T19:30:00Z,30.6671,-87.9365,8.5,2.54,3.581,-999.0,'1111122,1111122,1111122' 
DISL,ioos:station:DISL:MHPA:1,2017-09-03T20:00:00Z,30.6671,-87.9365,8.5,2.11,313.7,-999.0,'1111122,1111122,1111122' 
DISL,ioos:station:DISL:MHPA:1,2017-09-03T20:30:00Z,30.6671,-87.9365,8.5,2.2,318.9,-999.0,'1111122,1111122,1111122' 
DISL,ioos:station:DISL:MHPA:1,2017-09-03T21:00:00Z,30.6671,-87.9365,8.5,2.04,313.1,-999.0,'1111122,1111122,1111122' 
DISL,ioos:station:DISL:MHPA:1,2017-09-03T21:30:00Z,30.6671,-87.9365,8.5,1.11,310.6,-999.0,'1111122,1111122,1111122' 
DISL,ioos:station:DISL:MHPA:1,2017-09-03T22:00:00Z,30.6671,-87.9365,8.5,1.71,1.569,-999.0,'1111122,1111122,1111122' 
DISL,ioos:station:DISL:MHPA:1,2017-09-03T22:30:00Z,30.6671,-87.9365,8.5,2.12,4.624,-999.0,'1111122,1111122,1111122' 
DISL,ioos:station:DISL:MHPA:1,2017-09-03T23:00:00Z,30.6671,-87.9365,8.5,2.5,355.0,-999.0,'1111122,1111122,1111122' 
DISL,ioos:station:DISL:MHPA:1,2017-09-03T23:30:00Z,30.6671,-87.9365,8.5,1.49,1.901,-999.0,'1111122,1111122,1111122' 
DISL,ioos:station:DISL:MHPA:1,2017-09-04T00:00:00Z,30.6671,-87.9365,8.5,1.6,18.62,-999.0,'1111122,1111122,1111122' 
DISL,ioos:station:DISL:MHPA:1,2017-09-04T00:30:00Z,30.6671,-87.9365,8.5,1.07,30.57,-999.0,'1111122,1111122,1111122' 
DISL,ioos:station:DISL:MHPA:1,2017-09-04T01:00:00Z,30.6671,-87.9365,8.5,1.04,24.41,-999.0,'1111122,1111122,1111122' 
DISL,ioos:station:DISL:MHPA:1,2017-09-04T01:30:00Z,30.6671,-87.9365,8.5,1.06,2.802,-999.0,'1111122,1111122,1111122' 
DISL,ioos:station:DISL:MHPA:1,2017-09-04T02:00:00Z,30.6671,-87.9365,8.5,1.21,18.7,-999.0,'1111122,1111122,1111122' 
DISL,ioos:station:DISL:MHPA:1,2017-09-04T02:30:00Z,30.6671,-87.9365,8.5,1.03,12.82,-999.0,'1111122,1111122,1111122' 
DISL,ioos:station:DISL:MHPA:1,2017-09-04T03:00:00Z,30.6671,-87.9365,8.5,1.14,16.8,-999.0,'1111122,1111122,1111122' 
DISL,ioos:station:DISL:MHPA:1,2017-09-04T03:30:00Z,30.6671,-87.9365,8.5,0.98,26.6,-999.0,'1111122,1111122,1111122' 
DISL,ioos:station:DISL:MHPA:1,2017-09-04T04:00:00Z,30.6671,-87.9365,8.5,0.79,17.1,-999.0,'1111122,1111122,1111122' 
DISL,ioos:station:DISL:MHPA:1,2017-09-04T04:30:00Z,30.6671,-87.9365,8.5,0.84,47.58,-999.0,'1111122,1111122,1111122' 
DISL,ioos:station:DISL:MHPA:1,2017-09-04T05:00:00Z,30.6671,-87.9365,8.5,1.04,355.4,-999.0,'1111122,1111122,1111122' 
DISL,ioos:station:DISL:MHPA:1,2017-09-04T05:30:00Z,30.6671,-87.9365,8.5,1.38,34.83,-999.0,'1111122,1111122,1111122' 
DISL,ioos:station:DISL:MHPA:1,2017-09-04T06:00:00Z,30.6671,-87.9365,8.5,0.97,324.1,-999.0,'1111122,1111122,1111122' 
DISL,ioos:station:DISL:MHPA:1,2017-09-04T06:30:00Z,30.6671,-87.9365,8.5,1.22,355.1,-999.0,'1111122,1111122,1111122' 
DISL,ioos:station:DISL:MHPA:1,2017-09-04T07:00:00Z,30.6671,-87.9365,8.5,0.56,12.31,-999.0,'1111122,1111122,1111122' 
DISL,ioos:station:DISL:MHPA:1,2017-09-04T07:30:00Z,30.6671,-87.9365,8.5,0.6,3.615,-999.0,'1111122,1111122,1111122' 
DISL,ioos:station:DISL:MHPA:1,2017-09-04T08:00:00Z,30.6671,-87.9365,8.5,0.78,359.1,-999.0,'1111122,1111122,1111122' 
DISL,ioos:station:DISL:MHPA:1,2017-09-04T08:30:00Z,30.6671,-87.9365,8.5,0.65,10.73,-999.0,'1111122,1111122,1111122' 
DISL,ioos:station:DISL:MHPA:1,2017-09-04T09:00:00Z,30.6671,-87.9365,8.5,0.56,356.7,-999.0,'1111122,1111122,1111122' 
DISL,ioos:station:DISL:MHPA:1,2017-09-04T09:30:00Z,30.6671,-87.9365,8.5,0.58,357.7,-999.0,'1111122,1111122,1111122' 
DISL,ioos:station:DISL:MHPA:1,2017-09-04T10:00:00Z,30.6671,-87.9365,8.5,1.54,7.984,-999.0,'1111122,1111122,1111122' 
DISL,ioos:station:DISL:MHPA:1,2017-09-04T10:30:00Z,30.6671,-87.9365,8.5,0.99,17.57,-999.0,'1111122,1111122,1111122' 
DISL,ioos:station:DISL:MHPA:1,2017-09-04T11:00:00Z,30.6671,-87.9365,8.5,0.91,343.2,-999.0,'1111122,1111122,1111122' 
DISL,ioos:station:DISL:MHPA:1,2017-09-04T11:30:00Z,30.6671,-87.9365,8.5,1.32,3.922,-999.0,'1111122,1111122,1111122' 
DISL,ioos:station:DISL:MHPA:1,2017-09-04T12:00:00Z,30.6671,-87.9365,8.5,1.39,17.27,-999.0,'1111122,1111122,1111122' 
DISL,ioos:station:DISL:MHPA:1,2017-09-04T12:30:00Z,30.6671,-87.9365,8.5,1.04,2.416,-999.0,'1111122,1111122,1111122' 
DISL,ioos:station:DISL:MHPA:1,2017-09-04T13:00:00Z,30.6671,-87.9365,8.5,0.87,1.872,-999.0,'1111122,1111122,1111122' 
DISL,ioos:station:DISL:MHPA:1,2017-09-04T13:30:00Z,30.6671,-87.9365,8.5,1.81,343.2,-999.0,'1111122,1111122,1111122' 
DISL,ioos:station:DISL:MHPA:1,2017-09-04T14:00:00Z,30.6671,-87.9365,8.5,2.14,351.3,-999.0,'1111122,1111122,1111122' 
DISL,ioos:station:DISL:MHPA:1,2017-09-04T14:30:00Z,30.6671,-87.9365,8.5,1.45,336.5,-999.0,'1111122,1111122,1111122' 
DISL,ioos:station:DISL:MHPA:1,2017-09-04T15:00:00Z,30.6671,-87.9365,8.5,1.17,356.6,-999.0,'1111122,1111122,1111122' 
DISL,ioos:station:DISL:MHPA:1,2017-09-04T15:30:00Z,30.6671,-87.9365,8.5,1.52,40.06,-999.0,'1111122,1111122,1111122' 
DISL,ioos:station:DISL:MHPA:1,2017-09-04T16:00:00Z,30.6671,-87.9365,8.5,1.17,328.1,-999.0,'1111122,1111122,1111122' 
DISL,ioos:station:DISL:MHPA:1,2017-09-04T16:30:00Z,30.6671,-87.9365,8.5,1.75,325.2,-999.0,'1111122,1111122,1111122' 
DISL,ioos:station:DISL:MHPA:1,2017-09-04T17:00:00Z,30.6671,-87.9365,8.5,0.61,343.8,-999.0,'1111122,1111122,1111122' 
DISL,ioos:station:DISL:MHPA:1,2017-09-04T17:30:00Z,30.6671,-87.9365,8.5,2.65,217.8,-999.0,'1111122,1111122,1111122' 
DISL,ioos:station:DISL:MHPA:1,2017-09-04T18:00:00Z,30.6671,-87.9365,8.5,1.64,190.9,-999.0,'1111122,1111122,1111122' 
DISL,ioos:station:DISL:MHPA:1,2017-09-04T18:30:00Z,30.6671,-87.9365,8.5,1.57,183.4,-999.0,'1111122,1111122,1111122' 
DISL,ioos:station:DISL:MHPA:1,2017-09-04T19:00:00Z,30.6671,-87.9365,8.5,2.0,184.3,-999.0,'1111122,1111122,1111122' 
DISL,ioos:station:DISL:MHPA:1,2017-09-04T19:30:00Z,30.6671,-87.9365,8.5,2.4,187.4,-999.0,'1111122,1111122,1111122' 
DISL,ioos:station:DISL:MHPA:1,2017-09-04T20:00:00Z,30.6671,-87.9365,8.5,2.6,170.6,-999.0,'1111122,1111122,1111122' 
DISL,ioos:station:DISL:MHPA:1,2017-09-04T20:30:00Z,30.6671,-87.9365,8.5,2.43,173.5,-999.0,'1111122,1111122,1111122' 
DISL,ioos:station:DISL:MHPA:1,2017-09-04T21:00:00Z,30.6671,-87.9365,8.5,3.08,189.1,-999.0,'1111122,1111122,1111122' 
DISL,ioos:station:DISL:MHPA:1,2017-09-04T21:30:00Z,30.6671,-87.9365,8.5,3.3,203.5,-999.0,'1111122,1111122,1111122' 
DISL,ioos:station:DISL:MHPA:1,2017-09-04T22:00:00Z,30.6671,-87.9365,8.5,3.17,208.0,-999.0,'1111122,1111122,1111122' 
DISL,ioos:station:DISL:MHPA:1,2017-09-04T22:30:00Z,30.6671,-87.9365,8.5,2.89,215.1,-999.0,'1111122,1111122,1111122' 
DISL,ioos:station:DISL:MHPA:1,2017-09-04T23:00:00Z,30.6671,-87.9365,8.5,2.74,227.9,-999.0,'1111122,1111122,1111122' 
DISL,ioos:station:DISL:MHPA:1,2017-09-04T23:30:00Z,30.6671,-87.9365,8.5,3.04,210.1,-999.0,'1111122,1111122,1111122' 
DISL,ioos:station:DISL:MHPA:1,2017-09-05T00:00:00Z,30.6671,-87.9365,8.5,2.86,200.0,-999.0,'1111122,1111122,1111122' 
DISL,ioos:station:DISL:MHPA:1,2017-09-05T00:30:00Z,30.6671,-87.9365,8.5,2.76,196.5,-999.0,'1111122,1111122,1111122' 
DISL,ioos:station:DISL:MHPA:1,2017-09-05T01:00:00Z,30.6671,-87.9365,8.5,3.36,189.8,-999.0,'1111122,1111122,1111122' 
DISL,ioos:station:DISL:MHPA:1,2017-09-05T01:30:00Z,30.6671,-87.9365,8.5,2.86,211.6,-999.0,'1111122,1111122,1111122' 
DISL,ioos:station:DISL:MHPA:1,2017-09-05T02:00:00Z,30.6671,-87.9365,8.5,3.37,214.2,-999.0,'1111122,1111122,1111122' 
DISL,ioos:station:DISL:MHPA:1,2017-09-05T02:30:00Z,30.6671,-87.9365,8.5,3.38,207.4,-999.0,'1111122,1111122,1111122' 
DISL,ioos:station:DISL:MHPA:1,2017-09-05T03:00:00Z,30.6671,-87.9365,8.5,3.04,215.4,-999.0,'1111122,1111122,1111122' 
DISL,ioos:station:DISL:MHPA:1,2017-09-05T03:30:00Z,30.6671,-87.9365,8.5,3.28,229.4,-999.0,'1111122,1111122,1111122' 
DISL,ioos:station:DISL:MHPA:1,2017-09-05T04:00:00Z,30.6671,-87.9365,8.5,3.16,239.1,-999.0,'1111122,1111122,1111122' 
DISL,ioos:station:DISL:MHPA:1,2017-09-05T04:30:00Z,30.6671,-87.9365,8.5,3.0,236.7,-999.0,'1111122,1111122,1111122' 
DISL,ioos:station:DISL:MHPA:1,2017-09-05T05:00:00Z,30.6671,-87.9365,8.5,3.21,232.5,-999.0,'1111122,1111122,1111122' 
DISL,ioos:station:DISL:MHPA:1,2017-09-05T05:30:00Z,30.6671,-87.9365,8.5,2.89,246.0,-999.0,'1111122,1111122,1111122' 